SCP
0 -0 0 0 0 -0 -0 -0 -0 -0 -0 -0 -0 -0 -0 -0 -0 -0 -0 -0 -0 -0 -0 -0 -0 -0 -0 -0 -0 -0 -0 -0 -0 -0 -0 -0 -0 -0 -0 -0 -0 -0 -0
0 -0 -0 0 -0 -0 -0 -0 -0 -0 -0 -0 -0 -0 -0 -0 -0 -0 -0 -0 -0 -0 -0 -0 -0 -0 -0 -0 -0 -0 -0 -0 -0 -0 -0 -0 -0 -0 -0 -0 -0 -0 -0
0 0 0 0 0 0 -0 -0 -0 0 -0 -0 -0 -0 -0 -0 -0 -0 -0 -0 -0 -0 -0 -0 -0 -0 -0 -0 -0 -0 -0 -0 -0 0 0 -0 -0 -0 -0 -0 -0 -0 -0
0 0 0 0 0 0 0 0 0 0 -0 -0 -0 -0 -0 -0 -0 -0 -0 -0 -0 -0 -0 -0 -0 -0 -0 -0 -0 -0 -0 -0 -0 0 0 -0 -0 -0 -0 -0 -0 -0 -0
0 0 0 0 0 0 0 0 0 0 0 0 -0 -0 -0 -0 -0 -0 -0 -0 -0 -0 -0 -0 -0 -0 -0 -0 -0 -0 -0 -0 0 -0 -0 -0 -0 -0 -0 -0 -0 -0 -0
-0 0 0 0 0 0 0 0 0 0 0 0 0 -0 -0 -0 -0 -0 -0 -0 -0 -0 -0 -0 -0 -0 -0 -0 -0 -0 -0 0 0 -0 -0 -0 -0 -0 -0 -0 -0 -0 -0
-0 -0 -0 0 0 0 0 0 0 0 0 0 0 -0 -0 -0 -0 -0 -0 -0 -0 -0 -0 -0 -0 -0 -0 -0 -0 -0 -0 0 -0 -0 -0 -0 -0 -0 -0 -0 -0 0 -0
-0 -0 -0 -0 -0 -0 -0 0 0 0 0 0 0 -0 -0 -0 -0 -0 -0 -0 -0 -0 -0 -0 -0 -0 -0 -0 -0 -0 -0 0 0 0 0 0 0 0 0 0 0 0 0
-0 -0 -0 -0 -0 -0 -0 -0 -0 -0 -0 -0 -0 -0 -0 -0 -0 -0 -0 -0 -0 -0 -0 -0 -0 -0 -0 -0 -0 -0 0 0 0 0 0 0 0 0 0 0 0 0 0
-0 -0 -0 -0 -0 -0 -0 -0 -0 -0 -0 -0 -0 -0 -0 -0 -0 -0 -0 -0 -0 -0 -0 -0 -0 -0 -0 -0 0 0 0 0 0 0 0 0 0 0 0 0 0 0 0
-0 -0 -0 -0 -0 -0 -0 -0 -0 -0 -0 -0 -0 -0 -0 0 -0 -0 -0 -0 0 -0 -0 0 0 0 0 0 0 0 0 0 0 0 0 0 0 0 0 0 0 0 0
-0 -0 -0 -0 -0 -0 -0 -0 -0 -0 -0 -0 -0 -0 0 0 0 0 0 0 0 0 0 0 0 0 0 0 0 0 0 0 0 0 0 0 0 0 0 0 0 0 0
-0 -0 -0 -0 -0 -0 -0 -0 0 0 0 0 -0 0 0 0 0 0 0 0 0 0 0 0 0 0 0 0 0 0 0 0 0 0 0 0 0 0 0 0 0 0 0
-0 -0 -0 -0 -0 -0 -0 -0 -0 0 0 0 0 0 0 0 0 0 0 0 0 0 0 0 0 0 0 0 0 0 0 0 0 0 0 0 0 0 0 0 0 0 0
-0 -0 -0 -0 -0 -0 -0 -0 -0 -0 0 0 0 0 0 0 0 0 0 0 0 0 0 0 0 0 0 0 0 0 0 0 0 0 0 0 0 0 0 0 0 0 0
-0 -0 -0 -0 -0 -0 -0 -0 -0 -0 -0 0 0 0 0 0 0 0 0 0 0 0 0 0 0 0 0 0 0 0 0 0 0 0 0 0 0 0 0 0 0 0 0
-0 -0 -0 -0 -0 -0 -0 -0 -0 -0 0 0 0 0 0 0 0 0 0 0 0 0 0 0 0 0 0 0 0 0 0 0 0 0 0 0 0 0 0 0 0 0 0
0 -0 -0 -0 -0 -0 -0 -0 0 0 0 0 0 0 0 0 0 0 0 0 0 0 0 0 0 0 0 0 0 0 0 0 0 0 0 0 0 0 0 0 0 0 0
0 0 -0 -0 -0 -0 -0 0 0 0 0 0 0 0 0 0 0 0 0 0 0 0 0 0 0 0 0 0 0 0 0 0 0 0 0 0 0 0 0 0 0 0 0
0 0 0 0 0 0 0 0 0 0 0 0 0 0 0 0 0 0 0 0 0 0 0 0 0 0 0 0 0 0 0 0 0 0 0 0 0 0 0 0 0 0 0
0 0 0 0 0 0 0 0 0 0 0 0 0 0 0 0 0 0 0 0 0 0 0 0 0 0 0 0 0 0 0 0 0 0 0 0 0 0 0 0 0 0 0
0 0 0 0 0 0 0 0 0 0 0 0 0 0 0 0 0 0 0 0 0 0 0 0 0 0 0 0 0 0 0 0 0 0 0 0 0 0 0 0 0 0 0
0 0 0 0 0 0 0 0 0 0 0 0 0 0 0 0 0 0 0 0 0 0 0 0 0 0 0 0 0 0 0 0 0 0 0 0 0 0 0 0 0 0 0
0 0 0 0 0 0 0 0 0 0 0 0 0 0 0 0 0 0 0 0 0 0 0 0 0 0 0 0 0 0 0 0 0 0 0 0 0 0 0 0 0 0 0
0 0 0 0 0 0 0 0 0 0 0 0 0 0 0 0 0 0 0 0 0 0 0 0 0 0 0 0 0 0 0 0 0 0 0 0 0 0 0 0 0 0 0
0 0 0 0 0 0 0 0 0 0 0 0 0 0 0 0 0 0 0 0 0 0 0 0 0 0 0 0 0 0 0 0 0 0 0 0 0 0 0 0 0 0 0
Wind_Speed_500mb
41 39 31 23 19 15 13 15 17 22 21 16 15 17 24 22 23 22 21 23 21 14 15 19 24 26 24 28 32 32 33 36 38 38 40 39 37 38 35 34 34 35 33
44 34 27 23 20 16 15 15 17 23 22 15 16 21 27 29 30 28 28 28 30 23 25 24 24 22 25 27 29 29 30 32 35 40 38 35 33 30 27 25 25 31 28
41 37 33 27 22 17 17 18 18 22 23 16 18 22 26 30 28 27 29 32 31 27 29 26 25 24 24 22 20 19 21 25 28 29 31 27 24 19 19 19 24 26 28
40 37 33 29 23 20 20 20 19 21 22 20 19 22 23 27 26 24 27 33 31 28 31 28 26 24 23 19 17 16 17 17 17 18 22 25 25 24 25 25 22 22 19
40 36 32 29 24 20 20 20 20 20 20 20 20 18 23 26 26 23 24 25 28 27 29 28 27 26 25 23 21 22 21 19 19 27 28 26 25 19 23 23 23 24 20
39 34 31 28 24 20 19 18 18 19 19 19 21 15 19 22 23 22 21 22 23 22 25 26 25 25 25 25 25 25 25 25 32 28 28 26 23 20 22 20 15 18 19
40 35 32 29 25 21 18 18 18 17 17 17 20 13 14 17 18 18 19 19 17 21 23 23 23 25 26 26 28 29 30 32 29 29 28 24 15 9 12 8 15 14 10
41 37 33 30 26 22 19 17 16 16 15 15 16 12 11 12 15 14 16 16 15 15 18 19 21 22 22 23 24 27 27 28 27 25 23 19 11 12 8 1 9 11 10
41 37 34 31 29 23 19 17 15 14 14 14 14 12 8 8 11 11 14 14 12 11 14 16 18 19 20 21 21 22 20 22 20 20 17 15 9 16 18 5 8 11 9
43 38 37 34 31 28 23 19 17 14 13 12 12 9 6 5 7 9 11 11 9 9 12 14 16 17 17 16 14 14 13 12 15 16 14 10 14 20 14 10 9 9 8
47 43 40 38 35 32 27 23 20 18 15 13 12 10 7 3 1 4 6 6 6 7 9 11 13 13 12 10 8 8 11 11 10 10 7 6 16 10 6 1 4 5 7
53 50 47 42 39 36 33 29 25 23 20 17 15 12 10 6 2 2 2 3 4 5 8 10 10 9 7 6 4 4 6 7 8 7 0 8 10 13 5 3 2 10 10
53 54 51 47 43 41 38 35 32 29 27 23 20 16 13 10 5 2 2 5 7 9 10 11 9 7 6 5 5 4 4 5 5 4 3 2 11 15 12 3 6 9 11
54 51 52 49 48 46 43 41 37 35 31 28 24 21 17 14 9 4 4 7 9 10 11 10 9 7 5 5 5 4 3 3 4 4 1 6 11 18 25 1 4 5 8
49 50 51 50 48 49 48 45 44 41 37 34 30 26 23 20 16 12 7 8 11 12 11 11 9 7 4 2 2 3 3 2 3 4 6 7 10 14 18 16 4 5 6
45 46 46 48 47 47 48 47 45 44 41 40 38 33 29 26 23 20 16 10 13 14 13 13 12 9 6 4 3 5 9 11 11 11 10 12 13 17 19 17 18 9 5
44 44 44 43 44 46 47 46 42 38 37 38 41 40 37 33 30 27 25 20 15 15 15 14 15 11 10 11 13 13 15 22 19 19 20 20 21 22 24 22 23 19 14
46 48 47 47 46 47 48 47 44 41 38 36 34 35 41 40 37 35 33 29 26 21 21 21 18 19 20 17 23 25 28 31 30 31 31 30 29 29 31 29 30 29 26
49 51 51 53 53 52 51 51 50 48 45 40 38 35 34 38 43 42 40 38 39 36 32 29 29 30 33 33 34 37 40 39 39 41 45 43 40 41 38 37 37 38 37
50 54 57 60 58 58 56 55 56 55 52 49 47 42 38 37 37 44 46 46 45 46 46 45 45 46 46 44 47 47 49 51 52 53 55 56 54 51 52 50 48 49 50
53 55 59 65 65 64 65 65 65 63 60 58 55 50 47 43 40 41 46 48 50 51 48 49 53 55 54 56 56 57 62 62 63 66 64 66 65 64 62 62 60 58 59
58 63 67 68 70 69 67 65 66 63 64 60 58 57 54 49 47 47 47 47 49 56 59 59 59 61 65 63 64 58 42 57 71 75 75 74 74 73 74 71 71 71 70
40 45 49 64 73 69 65 59 64 63 62 63 64 61 58 56 54 51 49 50 50 54 60 62 71 71 71 70 75 62 23 33 44 59 62 64 71 75 82 78 81 79 78
32 34 32 36 60 62 62 61 65 65 65 59 55 55 52 47 52 46 50 46 47 49 58 61 66 79 77 81 77 81 82 81 45 43 51 48 59 65 77 83 86 87 85
13 19 21 24 41 52 57 59 60 62 54 42 47 52 46 44 43 44 43 39 47 51 58 56 65 64 76 84 83 86 85 83 89 87 77 80 79 76 73 79 77 74 87
10 9 11 15 23 34 44 51 55 55 54 49 46 46 45 42 38 38 37 43 45 51 49 51 49 53 60 61 70 70 73 76 79 73 81 91 91 90 86 84 87 91 80
Wind_Direction_500mb
163 162 166 156 141 132 127 120 112 113 101 97 87 90 84 88 107 123 125 111 98 139 115 116 125 124 119 110 104 100 96 98 98 93 95 94 94 93 93 94 93 91 91
164 164 164 151 142 133 123 121 119 115 113 107 87 85 83 88 97 102 100 98 98 97 101 106 108 110 114 111 107 103 101 96 99 100 93 91 85 87 79 80 90 92 91
161 159 158 150 140 129 123 122 119 115 122 110 93 87 78 76 87 86 86 94 99 92 100 106 108 109 109 120 120 114 107 111 111 108 94 82 77 77 88 84 92 94 96
160 158 158 148 142 137 129 124 115 113 117 113 100 95 91 81 85 83 78 96 99 89 98 100 101 107 114 123 127 125 123 123 119 113 89 83 80 87 94 96 88 82 87
164 161 160 150 146 139 131 124 117 110 108 110 113 98 96 83 76 80 77 79 99 94 91 93 96 103 108 113 116 117 119 120 121 94 92 89 86 91 108 95 92 86 90
166 165 159 154 152 145 134 125 117 114 113 115 120 103 88 81 73 72 74 74 98 97 93 89 92 97 101 104 104 104 105 109 95 96 90 88 92 102 100 103 100 100 108
170 171 167 162 159 153 144 137 127 120 115 117 124 121 94 80 72 66 73 80 85 89 83 81 86 93 97 101 103 102 102 101 98 95 93 89 94 101 112 125 116 126 124
177 176 173 169 168 162 157 148 137 130 125 123 130 126 100 79 65 57 62 83 89 86 86 85 90 96 101 106 111 109 104 98 94 90 87 81 47 21 22 285 124 135 135
184 184 180 179 177 174 170 161 154 146 137 133 140 142 112 79 68 58 52 81 92 94 96 95 98 101 105 108 103 97 103 95 94 91 80 79 34 10 359 94 134 169 138
189 193 189 189 188 186 183 179 173 166 159 156 157 152 132 90 53 46 41 76 88 99 111 113 108 103 105 114 107 100 107 96 96 82 92 50 351 358 26 114 133 150 156
194 199 198 199 197 197 195 193 189 187 184 183 180 177 174 173 65 35 34 70 95 111 122 122 119 114 110 111 111 106 103 102 98 95 93 21 343 12 9 96 216 195 161
199 202 203 206 207 205 205 204 204 204 203 204 204 200 203 207 221 328 347 127 140 148 148 145 139 127 115 112 118 123 122 118 112 108 132 333 346 1 335 288 195 161 163
202 208 209 210 212 213 216 215 215 214 213 213 215 216 215 219 229 283 278 193 182 174 172 166 164 158 141 124 125 132 127 125 137 139 316 339 339 340 329 122 167 190 167
209 213 215 216 219 219 221 223 225 224 225 225 226 226 226 225 228 243 239 205 191 184 180 180 179 169 154 128 111 105 118 143 172 161 360 346 321 332 346 152 186 169 178
214 218 218 221 223 225 227 227 228 230 230 231 233 233 231 230 228 221 215 208 200 190 195 188 185 183 180 158 70 28 360 306 249 250 254 308 317 314 328 340 198 214 228
220 222 221 223 225 227 229 232 234 235 233 234 234 236 234 233 231 228 222 215 208 205 206 206 208 211 220 232 262 320 324 303 286 263 259 277 295 290 308 311 328 262 252
227 228 227 225 225 226 229 230 232 229 232 236 236 237 236 236 234 232 231 225 219 219 219 221 227 231 245 264 273 270 284 283 282 270 258 257 266 274 284 290 295 306 243
235 236 234 233 231 230 230 231 233 233 232 235 237 237 237 237 237 235 234 232 234 234 239 235 238 250 253 267 274 272 275 276 275 276 270 253 253 257 264 267 273 282 291
236 239 240 240 238 238 236 237 238 241 241 239 241 241 240 237 237 238 238 236 234 234 237 250 253 261 266 264 267 269 269 271 272 270 275 272 257 257 253 263 266 270 275
238 238 239 241 239 240 241 242 243 245 245 246 246 244 244 242 239 238 239 240 240 243 240 242 246 247 254 261 264 266 271 271 271 271 270 268 269 262 258 257 262 265 267
238 238 239 239 240 237 237 238 240 243 244 246 248 248 246 246 244 241 241 242 246 247 251 254 256 255 259 259 263 267 268 268 268 265 263 267 268 269 263 262 261 260 264
237 239 241 241 239 238 237 240 243 246 249 250 251 251 251 249 248 247 248 247 248 252 252 252 255 258 258 260 258 258 268 272 268 268 268 268 269 267 266 262 261 261 263
231 236 243 245 237 235 236 236 239 241 245 247 248 249 247 250 252 253 253 257 259 260 260 259 256 257 259 262 261 254 252 251 270 276 274 272 269 267 266 264 264 264 261
239 239 249 248 228 232 234 232 237 239 238 245 248 253 252 248 251 255 257 259 260 267 265 269 271 264 261 261 261 262 259 258 266 276 278 273 267 275 269 262 263 261 262
206 222 233 232 226 229 232 234 238 240 242 238 245 251 254 254 250 252 252 264 269 267 272 270 276 273 270 263 262 264 264 265 264 270 274 276 280 278 277 272 271 271 268
150 170 195 211 222 228 231 233 237 239 238 237 235 244 252 255 254 254 259 261 261 264 269 274 276 281 278 281 276 275 279 271 277 280 274 281 281 284 290 280 275 280 269
Wind_Speed_850mb
41 39 31 23 19 15 13 15 17 22 21 16 15 17 24 22 23 22 21 23 21 14 15 19 24 26 24 28 32 32 33 36 38 38 40 39 37 38 35 34 34 35 33
44 34 27 23 20 16 15 15 17 23 22 15 16 21 27 29 30 28 28 28 30 23 25 24 24 22 25 27 29 29 30 32 35 40 38 35 33 30 27 25 25 31 28
41 37 33 27 22 17 17 18 18 22 23 16 18 22 26 30 28 27 29 32 31 27 29 26 25 24 24 22 20 19 21 25 28 29 31 27 24 19 19 19 24 26 28
40 37 33 29 23 20 20 20 19 21 22 20 19 22 23 27 26 24 27 33 31 28 31 28 26 24 23 19 17 16 17 17 17 18 22 25 25 24 25 25 22 22 19
40 36 32 29 24 20 20 20 20 20 20 20 20 18 23 26 26 23 24 25 28 27 29 28 27 26 25 23 21 22 21 19 19 27 28 26 25 19 23 23 23 24 20
39 34 31 28 24 20 19 18 18 19 19 19 21 15 19 22 23 22 21 22 23 22 25 26 25 25 25 25 25 25 25 25 32 28 28 26 23 20 22 20 15 18 19
40 35 32 29 25 21 18 18 18 17 17 17 20 13 14 17 18 18 19 19 17 21 23 23 23 25 26 26 28 29 30 32 29 29 28 24 15 9 12 8 15 14 10
41 37 33 30 26 22 19 17 16 16 15 15 16 12 11 12 15 14 16 16 15 15 18 19 21 22 22 23 24 27 27 28 27 25 23 19 11 12 8 1 9 11 10
41 37 34 31 29 23 19 17 15 14 14 14 14 12 8 8 11 11 14 14 12 11 14 16 18 19 20 21 21 22 20 22 20 20 17 15 9 16 18 5 8 11 9
43 38 37 34 31 28 23 19 17 14 13 12 12 9 6 5 7 9 11 11 9 9 12 14 16 17 17 16 14 14 13 12 15 16 14 10 14 20 14 10 9 9 8
47 43 40 38 35 32 27 23 20 18 15 13 12 10 7 3 1 4 6 6 6 7 9 11 13 13 12 10 8 8 11 11 10 10 7 6 16 10 6 1 4 5 7
53 50 47 42 39 36 33 29 25 23 20 17 15 12 10 6 2 2 2 3 4 5 8 10 10 9 7 6 4 4 6 7 8 7 0 8 10 13 5 3 2 10 10
53 54 51 47 43 41 38 35 32 29 27 23 20 16 13 10 5 2 2 5 7 9 10 11 9 7 6 5 5 4 4 5 5 4 3 2 11 15 12 3 6 9 11
54 51 52 49 48 46 43 41 37 35 31 28 24 21 17 14 9 4 4 7 9 10 11 10 9 7 5 5 5 4 3 3 4 4 1 6 11 18 25 1 4 5 8
49 50 51 50 48 49 48 45 44 41 37 34 30 26 23 20 16 12 7 8 11 12 11 11 9 7 4 2 2 3 3 2 3 4 6 7 10 14 18 16 4 5 6
45 46 46 48 47 47 48 47 45 44 41 40 38 33 29 26 23 20 16 10 13 14 13 13 12 9 6 4 3 5 9 11 11 11 10 12 13 17 19 17 18 9 5
44 44 44 43 44 46 47 46 42 38 37 38 41 40 37 33 30 27 25 20 15 15 15 14 15 11 10 11 13 13 15 22 19 19 20 20 21 22 24 22 23 19 14
46 48 47 47 46 47 48 47 44 41 38 36 34 35 41 40 37 35 33 29 26 21 21 21 18 19 20 17 23 25 28 31 30 31 31 30 29 29 31 29 30 29 26
49 51 51 53 53 52 51 51 50 48 45 40 38 35 34 38 43 42 40 38 39 36 32 29 29 30 33 33 34 37 40 39 39 41 45 43 40 41 38 37 37 38 37
50 54 57 60 58 58 56 55 56 55 52 49 47 42 38 37 37 44 46 46 45 46 46 45 45 46 46 44 47 47 49 51 52 53 55 56 54 51 52 50 48 49 50
53 55 59 65 65 64 65 65 65 63 60 58 55 50 47 43 40 41 46 48 50 51 48 49 53 55 54 56 56 57 62 62 63 66 64 66 65 64 62 62 60 58 59
58 63 67 68 70 69 67 65 66 63 64 60 58 57 54 49 47 47 47 47 49 56 59 59 59 61 65 63 64 58 42 57 71 75 75 74 74 73 74 71 71 71 70
40 45 49 64 73 69 65 59 64 63 62 63 64 61 58 56 54 51 49 50 50 54 60 62 71 71 71 70 75 62 23 33 44 59 62 64 71 75 82 78 81 79 78
32 34 32 36 60 62 62 61 65 65 65 59 55 55 52 47 52 46 50 46 47 49 58 61 66 79 77 81 77 81 82 81 45 43 51 48 59 65 77 83 86 87 85
13 19 21 24 41 52 57 59 60 62 54 42 47 52 46 44 43 44 43 39 47 51 58 56 65 64 76 84 83 86 85 83 89 87 77 80 79 76 73 79 77 74 87
10 9 11 15 23 34 44 51 55 55 54 49 46 46 45 42 38 38 37 43 45 51 49 51 49 53 60 61 70 70 73 76 79 73 81 91 91 90 86 84 87 91 80
Wind_Direction_850mb
163 162 166 156 141 132 127 120 112 113 101 97 87 90 84 88 107 123 125 111 98 139 115 116 125 124 119 110 104 100 96 98 98 93 95 94 94 93 93 94 93 91 91
164 164 164 151 142 133 123 121 119 115 113 107 87 85 83 88 97 102 100 98 98 97 101 106 108 110 114 111 107 103 101 96 99 100 93 91 85 87 79 80 90 92 91
161 159 158 150 140 129 123 122 119 115 122 110 93 87 78 76 87 86 86 94 99 92 100 106 108 109 109 120 120 114 107 111 111 108 94 82 77 77 88 84 92 94 96
160 158 158 148 142 137 129 124 115 113 117 113 100 95 91 81 85 83 78 96 99 89 98 100 101 107 114 123 127 125 123 123 119 113 89 83 80 87 94 96 88 82 87
164 161 160 150 146 139 131 124 117 110 108 110 113 98 96 83 76 80 77 79 99 94 91 93 96 103 108 113 116 117 119 120 121 94 92 89 86 91 108 95 92 86 90
166 165 159 154 152 145 134 125 117 114 113 115 120 103 88 81 73 72 74 74 98 97 93 89 92 97 101 104 104 104 105 109 95 96 90 88 92 102 100 103 100 100 108
170 171 167 162 159 153 144 137 127 120 115 117 124 121 94 80 72 66 73 80 85 89 83 81 86 93 97 101 103 102 102 101 98 95 93 89 94 101 112 125 116 126 124
177 176 173 169 168 162 157 148 137 130 125 123 130 126 100 79 65 57 62 83 89 86 86 85 90 96 101 106 111 109 104 98 94 90 87 81 47 21 22 285 124 135 135
184 184 180 179 177 174 170 161 154 146 137 133 140 142 112 79 68 58 52 81 92 94 96 95 98 101 105 108 103 97 103 95 94 91 80 79 34 10 359 94 134 169 138
189 193 189 189 188 186 183 179 173 166 159 156 157 152 132 90 53 46 41 76 88 99 111 113 108 103 105 114 107 100 107 96 96 82 92 50 351 358 26 114 133 150 156
194 199 198 199 197 197 195 193 189 187 184 183 180 177 174 173 65 35 34 70 95 111 122 122 119 114 110 111 111 106 103 102 98 95 93 21 343 12 9 96 216 195 161
199 202 203 206 207 205 205 204 204 204 203 204 204 200 203 207 221 328 347 127 140 148 148 145 139 127 115 112 118 123 122 118 112 108 132 333 346 1 335 288 195 161 163
202 208 209 210 212 213 216 215 215 214 213 213 215 216 215 219 229 283 278 193 182 174 172 166 164 158 141 124 125 132 127 125 137 139 316 339 339 340 329 122 167 190 167
209 213 215 216 219 219 221 223 225 224 225 225 226 226 226 225 228 243 239 205 191 184 180 180 179 169 154 128 111 105 118 143 172 161 360 346 321 332 346 152 186 169 178
214 218 218 221 223 225 227 227 228 230 230 231 233 233 231 230 228 221 215 208 200 190 195 188 185 183 180 158 70 28 360 306 249 250 254 308 317 314 328 340 198 214 228
220 222 221 223 225 227 229 232 234 235 233 234 234 236 234 233 231 228 222 215 208 205 206 206 208 211 220 232 262 320 324 303 286 263 259 277 295 290 308 311 328 262 252
227 228 227 225 225 226 229 230 232 229 232 236 236 237 236 236 234 232 231 225 219 219 219 221 227 231 245 264 273 270 284 283 282 270 258 257 266 274 284 290 295 306 243
235 236 234 233 231 230 230 231 233 233 232 235 237 237 237 237 237 235 234 232 234 234 239 235 238 250 253 267 274 272 275 276 275 276 270 253 253 257 264 267 273 282 291
236 239 240 240 238 238 236 237 238 241 241 239 241 241 240 237 237 238 238 236 234 234 237 250 253 261 266 264 267 269 269 271 272 270 275 272 257 257 253 263 266 270 275
238 238 239 241 239 240 241 242 243 245 245 246 246 244 244 242 239 238 239 240 240 243 240 242 246 247 254 261 264 266 271 271 271 271 270 268 269 262 258 257 262 265 267
238 238 239 239 240 237 237 238 240 243 244 246 248 248 246 246 244 241 241 242 246 247 251 254 256 255 259 259 263 267 268 268 268 265 263 267 268 269 263 262 261 260 264
237 239 241 241 239 238 237 240 243 246 249 250 251 251 251 249 248 247 248 247 248 252 252 252 255 258 258 260 258 258 268 272 268 268 268 268 269 267 266 262 261 261 263
231 236 243 245 237 235 236 236 239 241 245 247 248 249 247 250 252 253 253 257 259 260 260 259 256 257 259 262 261 254 252 251 270 276 274 272 269 267 266 264 264 264 261
239 239 249 248 228 232 234 232 237 239 238 245 248 253 252 248 251 255 257 259 260 267 265 269 271 264 261 261 261 262 259 258 266 276 278 273 267 275 269 262 263 261 262
206 222 233 232 226 229 232 234 238 240 242 238 245 251 254 254 250 252 252 264 269 267 272 270 276 273 270 263 262 264 264 265 264 270 274 276 280 278 277 272 271 271 268
150 170 195 211 222 228 231 233 237 239 238 237 235 244 252 255 254 254 259 261 261 264 269 274 276 281 278 281 276 275 279 271 277 280 274 281 281 284 290 280 275 280 269